[[{"header":{"parameterUnit":"m.s-1","parameterCategory":1,"la1":30.2992,"la2":30.254,"lo1":-89.0895,"lo2":-89.0443,"dy":0.0025,"dx":0.0025,"nx":19,"ny":19,"refTime":"2026-03-08T09:00:00:Z","depth":0,"parameterNumber":2,"parameterNumberName":"U-component_of_WINDS"},"data":[0,0,0,-1.4829,-1.4828,-1.4802,-1.4802,-1.4766,-1.4766,0,0,0,0,0,0,0,0,0,0,0,-1.4837,-1.4836,-1.4829,-1.4828,-1.4802,-1.4802,-1.4766,-1.4766,0,0,0,0,0,0,0,0,0,0,0,-1.4837,-1.4836,-1.4836,-1.4828,-1.4802,-1.4802,-1.4766,-1.4787,0,0,0,0,0,0,0,0,0,0,-1.4812,-1.482,-1.4836,-1.4836,-1.4828,-1.4802,-1.4802,-1.4788,-1.4785,-1.4777,0,-1.4772,0,-1.4769,-1.4764,-1.4763,0,0,0,-1.4828,-1.4822,-1.4815,-1.4836,-1.4828,-1.4802,-1.4814,-1.4786,-1.4784,-1.4774,-1.4772,-1.477,-1.4768,-1.4763,-1.4763,-1.4723,-1.4723,0,0,-1.4829,-1.4832,-1.4817,-1.4813,-1.4819,-1.4815,-1.4813,-1.4785,-1.4781,-1.4772,-1.4769,-1.4767,-1.4763,-1.4763,-1.4723,-1.4723,0,0,0,-1.4833,-1.4833,-1.4826,-1.4815,-1.481,-1.4814,-1.4812,-1.4783,-1.478,-1.4769,-1.4767,-1.4763,-1.4762,-1.4723,-1.4723,-1.4717,0,0,0,-1.4834,-1.4835,-1.4827,-1.4828,-1.4811,-1.4796,-1.481,-1.4782,-1.4779,-1.4767,-1.4763,-1.4762,-1.4723,-1.4723,-1.4718,-1.4714,0,0,0,-1.4838,-1.4836,-1.4832,-1.4829,-1.4818,-1.4797,-1.4793,-1.4781,-1.4778,-1.4763,-1.4762,-1.4723,-1.4723,-1.4718,-1.4715,-1.4703,0,0,0,-1.4843,-1.4828,-1.4832,-1.4815,-1.4818,-1.4794,-1.4793,-1.4775,-1.4762,-1.4763,-1.4723,-1.4723,-1.4719,-1.4715,-1.4704,-1.4693,-1.469,0,0,-1.4826,-1.4826,-1.4815,-1.4818,-1.4795,-1.4798,-1.4773,-1.4758,-1.4754,-1.4733,-1.4732,-1.4718,-1.4715,-1.4703,-1.467,-1.4667,0,0,0,-1.4811,-1.4803,-1.4796,-1.4785,-1.4774,-1.4763,-1.4752,-1.4746,-1.4728,-1.4744,-1.4711,-1.4709,-1.4702,-1.4697,-1.4694,-1.4687,-1.4721,-1.4721,-1.4721,-1.479,-1.4786,-1.4767,-1.4759,-1.4748,-1.4736,-1.4725,-1.4715,-1.4714,-1.4706,-1.47,-1.468,-1.4674,-1.4672,-1.4665,-1.4695,-1.4695,-1.4694,-1.4694,-1.4763,-1.4751,-1.4749,-1.4731,-1.4725,-1.4709,-1.4696,-1.4696,-1.4678,-1.4685,-1.4678,-1.4685,-1.4669,-1.4662,-1.4694,-1.4694,-1.4694,-1.4694,-1.4694,-1.4748,-1.4742,-1.4735,-1.4717,-1.4703,-1.4695,-1.4678,-1.4674,-1.4669,-1.4663,-1.4655,-1.4655,-1.4653,-1.466,-1.466,-1.466,-1.466,-1.4659,-1.4659,-1.4735,-1.4728,-1.4716,-1.4702,-1.4693,-1.468,-1.4667,-1.4658,-1.4646,-1.4643,-1.4643,-1.4641,-1.4669,-1.4675,-1.4658,-1.4659,-1.4659,-1.4659,-1.4659,-1.4708,-1.4713,-1.4694,-1.4685,-1.4667,-1.4652,-1.4647,-1.4627,-1.4619,-1.461,-1.4609,-1.4631,-1.4631,-1.4633,-1.4638,-1.4612,-1.4612,-1.4612,-1.4612,-1.4695,-1.4695,-1.4673,-1.4658,-1.4644,-1.4636,-1.4611,-1.46,-1.4589,-1.4583,-1.4586,-1.4593,-1.4595,-1.4593,-1.4596,-1.46,-1.4566,-1.4566,-1.4566,-1.4677,-1.4675,-1.4656,-1.4647,-1.4632,-1.4619,-1.4594,-1.4576,-1.4564,-1.4564,-1.4577,-1.4579,-1.459,-1.4594,-1.4593,-1.4598,-1.4606,0,0]},{"header":{"parameterUnit":"m.s-1","parameterCategory":1,"la1":30.2992,"la2":30.254,"lo1":-89.0895,"lo2":-89.0443,"dy":0.0025,"dx":0.0025,"nx":19,"ny":19,"refTime":"2026-03-08T09:00:00:Z","depth":0,"parameterNumber":3,"parameterNumberName":"V-component_of_WINDS"},"data":[0,0,0,2.0813,2.0813,2.0793,2.0793,2.0772,2.0772,0,0,0,0,0,0,0,0,0,0,0,2.0822,2.0822,2.0813,2.0813,2.0793,2.0793,2.0772,2.0772,0,0,0,0,0,0,0,0,0,0,0,2.0822,2.0822,2.0822,2.0813,2.0793,2.0793,2.0772,2.0785,0,0,0,0,0,0,0,0,0,0,2.0803,2.0815,2.0822,2.0822,2.0813,2.0793,2.0793,2.0786,2.0784,2.0783,0,2.0783,0,2.0777,2.0771,2.077,0,0,0,2.081,2.0816,2.0808,2.0822,2.0813,2.0793,2.0801,2.0785,2.0783,2.0781,2.0783,2.0782,2.0777,2.077,2.077,2.0776,2.0776,0,0,2.0811,2.082,2.0809,2.0807,2.0812,2.0802,2.0801,2.0784,2.0786,2.0782,2.0781,2.0777,2.077,2.077,2.0775,2.0776,0,0,0,2.0816,2.0821,2.0813,2.0809,2.0805,2.0802,2.08,2.0786,2.0783,2.0781,2.0776,2.077,2.077,2.0775,2.0776,2.0794,0,0,0,2.0817,2.0824,2.0814,2.0819,2.0805,2.0795,2.0803,2.0785,2.0782,2.0776,2.077,2.077,2.0775,2.0775,2.0793,2.08,0,0,0,2.0822,2.0824,2.0823,2.0819,2.0812,2.0796,2.0791,2.0784,2.078,2.077,2.077,2.0775,2.0775,2.0792,2.0799,2.0806,0,0,0,2.083,2.0836,2.0823,2.0828,2.0812,2.0807,2.0791,2.0787,2.0781,2.077,2.0775,2.0776,2.0792,2.0798,2.0805,2.0814,2.0819,0,0,2.0842,2.0838,2.0841,2.0828,2.0829,2.081,2.0812,2.0797,2.0787,2.078,2.078,2.0793,2.0799,2.0806,2.0839,2.0842,0,0,0,2.0847,2.0849,2.0848,2.0844,2.0835,2.0828,2.0812,2.0808,2.0802,2.0786,2.0797,2.08,2.0804,2.0807,2.0811,2.0814,2.0778,2.0777,2.0777,2.0876,2.0866,2.087,2.0859,2.0855,2.0841,2.0838,2.0829,2.0816,2.082,2.0817,2.0839,2.0844,2.0846,2.085,2.0821,2.0821,2.0821,2.0821,2.0893,2.0895,2.0884,2.0884,2.0873,2.0873,2.086,2.0853,2.0851,2.0839,2.0841,2.083,2.085,2.0853,2.0822,2.0822,2.0822,2.0821,2.0821,2.0911,2.0911,2.0907,2.0903,2.0902,2.0889,2.089,2.0879,2.0869,2.0872,2.087,2.0869,2.0869,2.0872,2.0872,2.0872,2.0872,2.0872,2.0872,2.0931,2.0927,2.0929,2.0923,2.0921,2.0918,2.0906,2.0904,2.0899,2.0891,2.0891,2.088,2.0854,2.0849,2.0873,2.0873,2.0873,2.0873,2.0873,2.0954,2.0948,2.0951,2.095,2.0944,2.0945,2.0933,2.093,2.0927,2.0928,2.0917,2.09,2.0893,2.0891,2.0886,2.0918,2.0918,2.0918,2.0918,2.0969,2.0966,2.097,2.0969,2.0967,2.0958,2.0963,2.0956,2.0947,2.0944,2.0938,2.0931,2.0929,2.0924,2.0921,2.0916,2.0956,2.0956,2.0956,2.0983,2.098,2.0987,2.098,2.0976,2.0972,2.0978,2.0978,2.0966,2.0957,2.0943,2.0941,2.093,2.0926,2.0916,2.0911,2.0902,0,0]}]]